Location: Isle of Man Observatory
(54.1776°N, 4.6264°W)
Time: 23:22:15
(UTC+01:00)

ISS - Visible Passes

Search period start: 23 March 2019 00:00
Search period end: 02 April 2019 01:00
Orbit: 408 x 411 km, 51.6° (Epoch: 23 March)

Date Brightness Start Highest point End Pass type
(mag) Time Alt. Az. Time Alt. Az. Time Alt. Az.
23 Mar -1.6 20:22:35 10° SSE 20:23:56 12° SE 20:25:16 10° ESE visible
23 Mar -1.8 21:56:47 10° SW 21:58:05 20° SW 21:58:05 20° SW visible
24 Mar -2.7 21:06:28 10° SW 21:09:20 27° SSE 21:09:56 26° SE visible
24 Mar -1.0 22:42:20 10° WSW 22:42:44 13° WSW 22:42:44 13° WSW visible
25 Mar -2.2 20:16:19 10° SSW 20:18:51 20° SSE 20:21:24 10° E visible
25 Mar -3.1 21:51:47 10° WSW 21:54:25 42° SSW 21:54:25 42° SSW visible
26 Mar -3.2 21:01:17 10° SW 21:04:24 40° SSE 21:06:00 23° ESE visible
26 Mar -1.6 22:37:30 10° W 22:38:45 21° WSW 22:38:45 21° WSW visible
27 Mar -3.7 21:46:53 10° WSW 21:50:07 55° S 21:50:14 55° S visible
28 Mar -3.5 20:56:16 10° WSW 20:59:30 51° S 21:01:38 19° ESE visible
28 Mar -2.0 22:32:40 10° W 22:34:24 26° WSW 22:34:24 26° WSW visible
29 Mar -3.6 21:42:00 10° W 21:45:14 52° S 21:45:44 46° SSE visible
30 Mar -3.5 20:51:19 10° W 20:54:35 55° S 20:57:03 16° ESE visible
30 Mar -2.1 22:27:50 10° W 22:29:48 26° WSW 22:29:48 26° WSW visible
31 Mar -3.1 22:37:06 10° W 22:40:15 42° SSW 22:41:05 34° SSE visible
01 Apr -3.3 21:46:23 10° W 21:49:36 49° S 21:52:22 13° ESE visible
01 Apr -1.8 23:23:07 10° W 23:25:07 21° SW 23:25:07 21° SW visible
